Terug naar catalogus

STARLINK-31290

ActiefCommunicatieVLEO
NORAD 59085·PAYLOAD·🇺🇸 United States

Gelanceerd Feb 29, 2024 vanaf Cape Canaveral Space Force Station

Loading…

Volgende Passages (komende 24 uur)

TLE

VersSource: CelesTrak SupGP

Epoch: Sep 15, 2026, 03:24 UTC

1 59085C 24041M   26258.14215278  .00025279  00000+0  91536-3 0  2580
2 59085  43.0007 306.5116 0001366 263.0113 351.3904 15.27574667    13

Volg STARLINK-31290 in realtime met AllMySat

Download on the App Store